Weather History for Taunton, MA

Change the Weather History Date:

Wednesday, November 7, 2012

  Actual Average Record
Temperature  
Mean Temperature 36 °F -  
Max Temperature 46 °F 54 °F 70 °F (1975)
Min Temperature 27 °F 33 °F 19 °F (1967)
Degree Days  
Heating Degree Days 28    
Moisture  
Dew Point 33 °F    
Average Humidity 80    
Maximum Humidity 89    
Minimum Humidity 60    
Precipitation  
Precipitation 1.08 in - - ()
Sea Level Pressure  
Sea Level Pressure 29.85 in    
Wind  
Wind Speed 10 mph (NNE)    
Max Wind Speed 20 mph    
Max Gust Speed 37 mph    
Visibility 6 miles    
Events Rain , Snow    
Averages and records for this station are not official NWS values.
T = Trace of Precipitation, MM = Missing Value Source: NWS Daily Summary

Daily Weather History Graph

Daily Weather History Graph

Search for Another Location

Airport:

Trip Planner

Search our weather history database for the weather conditions in past years. The results will help you decide how hot, cold, wet, or windy it might be!

Date:

Astronomy

Nov. 07, 2012 Rise Set
Actual Time 6:24 AM EST 4:30 PM EST
Civil Twilight 5:54 AM EST 5:00 PM EST
Nautical Twilight 5:21 AM EST 5:33 PM EST
Astronomical Twilight 4:49 AM EST 6:05 PM EST
Moon No Moon Rise 12:43 PM EST (11/7)
Length of Visible Light 11h 05m
Length of Day
10h 06m
Last Quarter, 43% of the Moon is Illuminated
Nov 7
Last Quarter
Nov 13
New
Nov 20
First Quarter
Nov 28
Full
Dec 6
Last Quarter

Hourly Weather History & Observations

Time (EST) Temp. Windchill Dew Point Humidity Pressure Visibility Wind Dir Wind Speed Gust Speed Precip Events Conditions
12:52 AM 27.0 °F - 24.1 °F 89% 30.12 in 10.0 mi Calm Calm - N/A   Overcast
1:52 AM 28.9 °F - 25.0 °F 85% 30.10 in 10.0 mi Calm Calm - N/A   Mostly Cloudy
2:52 AM 32.0 °F 28.7 °F 28.9 °F 88% 30.09 in 10.0 mi NNW 3.5 mph - N/A   Overcast
3:52 AM 39.0 °F 34.0 °F 30.0 °F 70% 30.07 in 10.0 mi NNE 6.9 mph - N/A   Mostly Cloudy
4:52 AM 42.1 °F 37.1 °F 30.0 °F 62% 30.03 in 10.0 mi NE 8.1 mph 19.6 mph N/A   Mostly Cloudy
6:52 AM 44.1 °F 38.6 °F 30.9 °F 60% 29.98 in 10.0 mi NNE 10.4 mph 24.2 mph N/A   Mostly Cloudy
7:52 AM 45.0 °F 38.2 °F 32.0 °F 60% 29.96 in 10.0 mi NE 15.0 mph 28.8 mph N/A   Overcast
8:52 AM 46.0 °F 39.9 °F 33.1 °F 61% 29.96 in 10.0 mi NE 13.8 mph 31.1 mph N/A   Overcast
9:52 AM 46.0 °F 39.0 °F 33.1 °F 61% 29.93 in 10.0 mi NNE 17.3 mph 31.1 mph N/A   Overcast
10:52 AM 46.0 °F 41.4 °F 33.1 °F 61% 29.91 in 10.0 mi NE 9.2 mph 28.8 mph N/A   Overcast
11:52 AM 44.1 °F 36.8 °F 35.1 °F 71% 29.89 in 6.0 mi NE 16.1 mph 31.1 mph 0.00 in Rain Light Rain
12:52 PM 41.0 °F 31.9 °F 35.1 °F 79% 29.85 in 2.5 mi NE 19.6 mph 33.4 mph 0.06 in Rain Rain
1:19 PM 41.0 °F 32.8 °F 35.1 °F 79% 29.83 in 3.0 mi NNE 16.1 mph 35.7 mph 0.06 in Rain Light Rain
1:27 PM 39.9 °F 31.1 °F 35.1 °F 83% 29.83 in 2.5 mi NE 17.3 mph 36.8 mph 0.07 in Rain Rain
1:36 PM 39.9 °F 32.5 °F 35.1 °F 83% 29.82 in 4.0 mi NE 12.7 mph 27.6 mph 0.08 in Rain Light Rain
1:52 PM 41.0 °F 33.5 °F 35.1 °F 79% 29.83 in 7.0 mi NNE 13.8 mph 24.2 mph 0.09 in Rain Light Rain
2:52 PM 41.0 °F 34.3 °F 36.0 °F 82% 29.81 in 4.0 mi NE 11.5 mph 31.1 mph 0.07 in Rain Rain
3:13 PM 41.0 °F 33.9 °F 36.0 °F 82% 29.81 in 2.5 mi NE 12.7 mph 33.4 mph 0.03 in Rain Rain
3:21 PM 41.0 °F 32.5 °F 36.0 °F 82% 29.81 in 4.0 mi NE 17.3 mph 27.6 mph 0.04 in Rain Light Rain
3:52 PM 41.0 °F 32.2 °F 36.0 °F 82% 29.79 in 7.0 mi NNE 18.4 mph 28.8 mph 0.06 in Rain Light Rain
4:52 PM 41.0 °F 32.5 °F 37.0 °F 86% 29.78 in 4.0 mi NNE 17.3 mph 27.6 mph 0.11 in Rain Rain
5:04 PM 41.0 °F 32.8 °F 36.0 °F 82% 29.78 in 4.0 mi NE 16.1 mph 36.8 mph 0.03 in Rain Rain
5:52 PM 39.0 °F 31.0 °F 35.1 °F 86% 29.78 in 4.0 mi NNE 13.8 mph 33.4 mph 0.16 in Rain Rain
6:52 PM 37.0 °F 29.3 °F 34.0 °F 89% 29.79 in 4.0 mi NNE 11.5 mph 26.5 mph 0.15 in Rain Rain
7:04 PM 37.0 °F 28.1 °F 34.0 °F 89% 29.78 in 5.0 mi NNE 15.0 mph 24.2 mph 0.03 in Rain Rain
7:52 PM 37.0 °F 27.4 °F 34.0 °F 89% 29.75 in 7.0 mi North 17.3 mph 28.8 mph 0.13 in Rain Rain
8:52 PM 37.0 °F 28.1 °F 34.0 °F 89% 29.73 in 6.0 mi NNE 15.0 mph 29.9 mph 0.08 in Rain Rain
9:52 PM 37.0 °F 27.0 °F 34.0 °F 89% 29.70 in 5.0 mi NNE 18.4 mph 29.9 mph 0.07 in Rain Rain
10:52 PM 37.9 °F 28.5 °F 34.0 °F 86% 29.68 in 3.0 mi North 17.3 mph 31.1 mph 0.05 in Snow Light Snow
11:06 PM 37.0 °F 28.5 °F 34.0 °F 89% 29.67 in 2.5 mi North 13.8 mph 28.8 mph 0.01 in Snow Light Snow
11:14 PM 37.0 °F 28.5 °F 34.0 °F 89% 29.67 in 4.0 mi NNE 13.8 mph 29.9 mph 0.02 in Rain Light Rain
11:52 PM 37.0 °F 27.7 °F 33.1 °F 86% 29.66 in 5.0 mi North 16.1 mph 33.4 mph 0.05 in Rain Light Rain